CW8198 Weather Reports


time (UTC)temp
F
wind
direction
speed
knots
gust
knots
rain 1hr
in
rain 24hr
in
rain mn
in
humidity
%
barometer
mb
20260903003050 92 195 3.5 9.6 0.00 0.00 0.00 50 1009.4
20260903002048 93 131 5.2 9.6 0.00 0.00 0.00 49 1009.4
20260903001048 93 191 2.6 8.7 0.00 0.00 0.00 49 1009.4
20260903000548 93 173 3.5 6.1 0.00 0.00 0.00 49 1009.3
20260903000048 94 196 2.6 6.1 0.00 0.00 0.00 49 1009.5
20260902235548 94 163 3.5 8.7 0.00 0.00 0.00 48 1009.5
20260902235050 94 142 3.5 8.7 0.00 0.00 0.00 47 1009.5
20260902234548 94 169 3.5 7.0 0.00 0.00 0.00 48 1009.5
20260902234048 94 193 2.6 7.8 0.00 0.00 0.00 48 1009.5
20260902233548 94 178 3.5 13.0 0.00 0.00 0.00 47 1009.5
20260902233048 95 207 4.3 13.0 0.00 0.00 0.00 48 1009.6
20260902232548 95 168 5.2 12.2 0.00 0.00 0.00 47 1009.5
20260902232047 95 178 4.3 12.2 0.00 0.00 0.00 47 1009.5
20260902231547 95 207 4.3 11.3 0.00 0.00 0.00 47 1009.6
20260902231047 95 234 7.0 13.9 0.00 0.00 0.00 47 1009.6
20260902230546 95 225 5.2 13.9 0.00 0.00 0.00 46 1009.6
20260902230046 95 209 5.2 13.0 0.00 0.00 0.00 46 1009.6
20260902225048 96 225 6.1 13.9 0.00 0.00 0.00 47 1009.7
20260902224546 96 196 4.3 9.6 0.00 0.00 0.00 48 1009.7
20260902223546 96 223 6.1 11.3 0.00 0.00 0.00 47 1009.7
20260902222545 95 238 7.0 13.0 0.00 0.00 0.00 46 1009.6
20260902222044 95 166 5.2 9.6 0.00 0.00 0.00 47 1009.7
20260902221545 95 223 6.1 9.6 0.00 0.00 0.00 48 1009.7
20260902221044 95 229 6.1 13.9 0.00 0.00 0.00 48 1009.6
20260902220544 94 245 4.3 13.9 0.00 0.00 0.00 48 1009.7
20260902215544 94 200 5.2 17.4 0.00 0.00 0.00 48 1009.7
20260902214543 95 192 7.0 13.9 0.00 0.00 0.00 45 1009.8
20260902214043 95 195 4.3 10.4 0.00 0.00 0.00 47 1009.7
20260902213543 95 240 4.3 10.4 0.00 0.00 0.00 50 1009.8
20260902213042 94 214 6.1 13.0 0.00 0.00 0.00 49 1009.7
20260902212542 94 229 8.7 13.0 0.00 0.00 0.00 48 1009.9
20260902211040 94 193 5.2 14.8 0.00 0.00 0.00 49 1009.9
20260902210039 94 205 7.0 14.8 0.00 0.00 0.00 48 1010.0
20260902205540 94 196 6.1 12.2 0.00 0.00 0.00 49 1010.0
20260902205040 94 205 5.2 12.2 0.00 0.00 0.00 50 1010.0
20260902204539 94 279 5.2 10.4 0.00 0.00 0.00 48 1010.2
20260902204039 94 191 6.1 11.3 0.00 0.00 0.00 48 1010.2
20260902203039 95 244 7.8 14.8 0.00 0.00 0.00 46 1010.3
20260902202538 95 202 6.1 13.9 0.00 0.00 0.00 46 1010.3
20260902202038 95 159 7.8 13.9 0.00 0.00 0.00 44 1010.5
20260902201538 95 244 6.1 10.4 0.00 0.00 0.00 46 1010.5
20260902201038 95 177 5.2 13.0 0.00 0.00 0.00 48 1010.5
20260902200537 94 225 6.1 13.0 0.00 0.00 0.00 47 1010.4
20260902194537 94 196 7.0 14.8 0.00 0.00 0.00 48 1010.5
20260902194037 94 202 7.0 13.0 0.00 0.00 0.00 49 1010.6
20260902193537 93 225 6.1 13.0 0.00 0.00 0.00 53 1010.6
20260902193036 92 236 7.0 13.0 0.00 0.00 0.00 50 1010.7
20260902192537 92 203 7.0 12.2 0.00 0.00 0.00 49 1010.8
20260902192036 92 209 7.0 12.2 0.00 0.00 0.00 49 1010.7
20260902191535 93 211 5.2 10.4 0.00 0.00 0.00 49 1010.6
20260902191035 93 243 4.3 10.4 0.00 0.00 0.00 54 1010.7
20260902190035 93 200 5.2 13.0 0.00 0.00 0.00 50 1010.8
20260902185534 92 178 5.2 10.4 0.00 0.00 0.00 50 1010.8
20260902185036 92 171 5.2 10.4 0.00 0.00 0.00 53 1010.9
20260902184534 92 155 3.5 10.4 0.00 0.00 0.00 52 1011.0
20260902184034 92 175 4.3 12.2 0.00 0.00 0.00 53 1011.1
20260902183534 92 146 5.2 12.2 0.00 0.00 0.00 54 1011.1
20260902183033 91 131 5.2 11.3 0.00 0.00 0.00 54 1011.2
20260902182532 91 196 5.2 11.3 0.00 0.00 0.00 52 1011.2
20260902181532 91 160 6.1 9.6 0.00 0.00 0.00 51 1011.2
20260902181033 91 194 4.3 10.4 0.00 0.00 0.00 50 1011.3
20260902180532 91 144 4.3 13.9 0.00 0.00 0.00 50 1011.3
20260902180032 92 255 7.0 13.9 0.00 0.00 0.00 48 1011.3
20260902175532 92 186 7.0 12.2 0.00 0.00 0.00 49 1011.4
20260902175033 92 211 6.1 10.4 0.00 0.00 0.00 49 1011.4
20260902174531 92 196 6.1 9.6 0.00 0.00 0.00 51 1011.5
20260902174031 91 189 3.5 7.8 0.00 0.00 0.00 52 1011.5
20260902173532 90 149 3.5 9.6 0.00 0.00 0.00 52 1011.6
20260902173032 90 178 5.2 9.6 0.00 0.00 0.00 52 1011.6
20260902172530 89 193 3.5 7.8 0.00 0.00 0.00 55 1011.6
20260902172030 89 198 1.7 7.8 0.00 0.00 0.00 55 1011.6
20260902171529 88 171 3.5 7.0 0.00 0.00 0.00 55 1011.6
20260902170028 87 207 5.2 8.7 0.00 0.00 0.00 54 1011.7
20260902165528 87 151 2.6 7.8 0.00 0.00 0.00 55 1011.8
20260902165029 87 215 1.7 4.3 0.00 0.00 0.00 59 1011.8
20260902164528 86 196 2.6 5.2 0.00 0.00 0.00 56 1011.8
20260902164028 86 146 1.7 5.2 0.00 0.00 0.00 58 1011.8
20260902163528 86 165 1.7 4.3 0.00 0.00 0.00 57 1011.8
20260902163027 86 191 1.7 5.2 0.00 0.00 0.00 56 1011.7
20260902162527 86 205 2.6 5.2 0.00 0.00 0.00 55 1011.8
20260902162027 86 212 2.6 6.1 0.00 0.00 0.00 56 1011.8
20260902161527 86 144 2.6 7.8 0.00 0.00 0.00 55 1011.8
20260902161026 86 196 3.5 9.6 0.00 0.00 0.00 55 1011.8
20260902160525 86 215 3.5 9.6 0.00 0.00 0.00 54 1011.9
20260902160025 86 187 5.2 8.7 0.00 0.00 0.00 55 1011.8
20260902155525 85 186 3.5 7.0 0.00 0.00 0.00 56 1011.7
20260902155027 85 187 3.5 7.8 0.00 0.00 0.00 56 1011.8
20260902154525 86 178 4.3 7.8 0.00 0.00 0.00 55 1011.8
20260902154025 85 223 4.3 7.8 0.00 0.00 0.00 56 1011.8
20260902153525 85 171 2.6 7.0 0.00 0.00 0.00 58 1011.7
20260902153024 85 189 2.6 8.7 0.00 0.00 0.00 59 1011.9
20260902152525 85 232 3.5 8.7 0.00 0.00 0.00 61 1011.9
20260902152024 85 215 3.5 7.0 0.00 0.00 0.00 60 1011.8
20260902151524 84 188 1.7 4.3 0.00 0.00 0.00 64 1011.7
20260902151024 83 124 1.7 5.2 0.00 0.00 0.00 66 1011.8
20260902150524 83 178 1.7 5.2 0.00 0.00 0.00 65 1011.8
20260902150024 82 93 1.7 6.1 0.00 0.00 0.00 65 1011.7
20260902145523 82 209 0.9 6.1 0.00 0.00 0.00 66 1011.7
20260902145024 82 132 1.7 6.1 0.00 0.00 0.00 66 1011.6
20260902144523 81 198 3.5 6.1 0.00 0.00 0.00 66 1011.7
20260902144022 80 234 1.7 4.3 0.00 0.00 0.00 70 1011.7
20260902143523 80 200 1.7 4.3 0.00 0.00 0.00 70 1011.6
20260902143022 79 193 1.7 3.5 0.00 0.00 0.00 70 1011.8
20260902142522 79 162 0.9 4.3 0.00 0.00 0.00 69 1011.7
20260902141516 79 178 1.7 5.2 0.00 0.00 0.00 68 1011.9
20260902141016 79 163 1.7 5.2 0.00 0.00 0.00 67 1012.0
20260902140516 79 132 1.7 7.8 0.00 0.00 0.00 68 1011.9
20260902140015 79 131 1.7 7.8 0.00 0.00 0.00 69 1011.8
20260902135514 79 9 4.3 7.0 0.00 0.00 0.00 71 1011.8
20260902135014 78 221 1.7 5.2 0.00 0.00 0.00 73 1011.9
20260902134514 78 187 2.6 7.0 0.00 0.00 0.00 74 1011.8
20260902134013 78 153 2.6 7.0 0.00 0.00 0.00 74 1011.8
20260902133513 78 119 3.5 5.2 0.00 0.00 0.00 76 1011.9
20260902133013 77 158 1.7 4.3 0.00 0.00 0.00 79 1012.0
20260902132513 76 162 1.7 6.1 0.00 0.00 0.00 81 1012.0
20260902131512 75 126 1.7 3.5 0.00 0.00 0.00 84 1012.2
20260902131012 74 196 1.7 3.5 0.00 0.00 0.00 85 1012.1
20260902130511 74 146 1.7 2.6 0.00 0.00 0.00 85 1012.3
20260902130010 73 196 0.9 1.7 0.00 0.00 0.00 85 1012.2
20260902125511 73 129 0.9 1.7 0.00 0.00 0.00 85 1012.3
20260902125012 73 93 0.0 1.7 0.00 0.00 0.00 85 1012.3
20260902124510 73 146 0.9 1.7 0.00 0.00 0.00 85 1012.3
20260902124009 73 178 0.9 1.7 0.00 0.00 0.00 85 1012.3
20260902123009 72 205 0.0 1.7 0.00 0.00 0.00 85 1012.3
20260902122509 72 111 0.0 1.7 0.00 0.00 0.00 85 1012.4
20260902122008 72 291 0.9 1.7 0.00 0.00 0.00 85 1012.4
20260902121509 72 31 0.9 1.7 0.00 0.00 0.00 85 1012.3
20260902121008 72 319 0.9 1.7 0.00 0.00 0.00 85 1012.4
20260902120508 72 232 0.9 1.7 0.00 0.00 0.00 85 1012.3
20260902120009 72 291 0.9 2.6 0.00 0.00 0.00 85 1012.3
20260902115508 72 26 0.9 2.6 0.00 0.00 0.00 85 1012.1
20260902115008 72 178 0.9 6.1 0.00 0.00 0.00 85 1012.1
20260902114509 72 61 3.5 6.1 0.00 0.00 0.00 85 1011.9
20260902114007 72 232 1.7 4.3 0.00 0.00 0.00 85 1012.2
20260902113008 73 26 1.7 5.2 0.00 0.00 0.00 86 1012.0
20260902111508 73 128 1.7 4.3 0.00 0.00 0.00 86 1012.0
20260902111007 73 254 1.7 4.3 0.00 0.00 0.00 86 1012.1
20260902110507 73 265 1.7 7.8 0.00 0.00 0.00 86 1012.2
20260902110008 73 16 5.2 7.8 0.00 0.00 0.00 87 1012.2
20260902105007 72 93 3.5 7.0 0.00 0.00 0.00 87 1012.3
20260902104007 72 0 0.0 2.6 0.00 0.00 0.00 86 1012.2
20260902103507 72 291 0.0 1.7 0.00 0.00 0.00 86 1012.2
20260902103009 72 9 0.0 2.6 0.00 0.00 0.00 86 1012.2
20260902102506 72 265 0.0 2.6 0.00 0.00 0.00 86 1012.1
20260902101506 72 205 0.9 2.6 0.00 0.00 0.00 85 1012.2
20260902100506 73 265 0.9 2.6 0.00 0.00 0.00 84 1012.4
20260902100005 73 93 0.9 3.5 0.00 0.00 0.00 84 1012.4
20260902095507 73 210 0.9 3.5 0.00 0.00 0.00 84 1012.4
20260902094506 73 51 0.0 1.7 0.00 0.00 0.00 82 1012.4
20260902094006 73 9 0.9 4.3 0.00 0.00 0.00 82 1012.5
20260902093506 74 178 1.7 4.3 0.00 0.00 0.00 81 1012.4
20260902093005 74 165 1.7 4.3 0.00 0.00 0.00 80 1012.5
20260902091508 74 111 0.9 3.5 0.00 0.00 0.00 77 1012.6
20260902090506 75 325 0.9 1.7 0.00 0.00 0.00 76 1012.6
20260902085505 76 9 0.0 1.7 0.00 0.00 0.00 74 1012.5
20260902085005 76 119 0.9 1.7 0.00 0.00 0.00 74 1012.5
20260902084506 76 41 0.0 1.7 0.00 0.00 0.00 74 1012.4
20260902084006 76 51 0.9 3.5 0.00 0.00 0.00 73 1012.6
20260902083506 76 165 0.9 3.5 0.00 0.00 0.00 73 1012.7
20260902083005 76 34 0.9 6.1 0.00 0.00 0.00 73 1012.7
20260902082005 76 209 1.7 7.8 0.00 0.00 0.00 72 1012.8
20260902081505 77 178 0.9 2.6 0.00 0.00 0.00 71 1012.6
20260902081005 77 230 1.7 4.3 0.00 0.00 0.00 71 1012.6
20260902080505 77 13 1.7 10.4 0.00 0.00 0.00 70 1012.7
20260902080004 77 43 6.1 10.4 0.00 0.00 0.00 70 1012.9
20260902075504 77 34 2.6 7.0 0.00 0.00 0.00 70 1012.8
20260902074504 78 338 5.2 9.6 0.00 0.00 0.00 66 1012.9
20260902074004 79 319 0.9 3.5 0.00 0.00 0.00 64 1012.4
20260902073504 79 232 0.9 4.3 0.00 0.00 0.00 63 1011.9
20260902073005 79 146 1.7 4.3 0.00 0.00 0.00 62 1011.9
20260902072503 79 178 0.9 5.2 0.00 0.00 0.00 62 1011.8
20260902072004 79 200 2.6 6.1 0.00 0.00 0.00 61 1011.7
20260902071504 80 142 3.5 6.1 0.00 0.00 0.00 61 1011.8
20260902071004 80 140 1.7 5.2 0.00 0.00 0.00 60 1011.8
20260902070503 80 212 2.6 7.0 0.00 0.00 0.00 60 1011.8
20260902070004 80 202 2.6 7.0 0.00 0.00 0.00 60 1011.8
20260902065504 80 171 3.5 7.0 0.00 0.00 0.00 60 1011.8
20260902065003 80 219 3.5 7.0 0.00 0.00 0.00 60 1011.8
20260902064503 80 207 3.5 7.0 0.00 0.00 0.00 60 1011.8
20260902064002 81 201 3.5 7.0 0.00 0.00 0.00 59 1011.8
20260902063503 81 232 1.7 7.0 0.00 0.00 0.00 59 1011.8
20260902062502 81 234 1.7 7.0 0.00 0.00 0.00 59 1011.7
20260902060502 81 190 3.5 7.8 0.00 0.00 0.00 59 1011.4
20260902060002 81 137 3.5 7.8 0.00 0.00 0.00 59 1011.2
20260902055504 81 137 3.5 7.8 0.00 0.00 0.00 59 1011.2
20260902055002 81 150 2.6 8.7 0.00 0.00 0.00 60 1011.2
20260902053957 82 102 3.5 6.1 0.00 0.00 0.00 60 1011.2
20260902053457 81 157 3.5 6.1 0.00 0.00 0.00 60 1011.4
20260902051957 81 162 1.7 6.1 0.00 0.00 0.00 62 1011.5
20260902051456 81 163 1.7 5.2 0.00 0.00 0.00 63 1011.6
20260902050456 81 193 1.7 3.5 0.00 0.00 0.00 63 1011.6
20260902045956 81 142 1.7 3.5 0.00 0.00 0.00 64 1011.6
20260902045455 81 123 0.9 3.5 0.00 0.00 0.00 64 1011.6
20260902043955 82 144 1.7 4.3 0.00 0.00 0.00 63 1011.5
20260902043455 82 119 1.7 4.3 0.00 0.00 0.00 64 1011.6
20260902042955 82 126 2.6 4.3 0.00 0.00 0.00 63 1011.7
20260902042455 82 140 1.7 4.3 0.00 0.00 0.00 63 1011.6
20260902041955 83 168 1.7 4.3 0.00 0.00 0.00 63 1011.5
20260902041454 83 178 2.6 4.3 0.00 0.00 0.00 63 1011.5
20260902040454 83 115 2.6 7.0 0.00 0.00 0.00 63 1011.6
20260902035954 83 137 3.5 7.0 0.00 0.00 0.00 63 1011.5
20260902035453 83 153 2.6 5.2 0.00 0.00 0.00 64 1011.6
20260902034955 83 150 1.7 5.2 0.00 0.00 0.00 65 1011.6
20260902034453 83 169 1.7 4.3 0.00 0.00 0.00 65 1011.7
20260902033453 82 165 1.7 4.3 0.00 0.00 0.00 67 1011.6
20260902032953 82 170 1.7 4.3 0.00 0.00 0.00 67 1011.6
20260902032453 83 121 1.7 3.5 0.00 0.00 0.00 68 1011.6
20260902031950 83 153 1.7 3.5 0.00 0.00 0.00 67 1011.6
20260902031450 83 115 1.7 2.6 0.00 0.00 0.00 66 1011.5
20260902030950 83 193 0.9 3.5 0.00 0.00 0.00 65 1011.5
20260902025945 84 149 0.9 3.5 0.00 0.00 0.00 64 1011.4
20260902025444 84 137 2.6 3.5 0.00 0.00 0.00 64 1011.4
20260902024945 84 119 1.7 3.5 0.00 0.00 0.00 64 1011.5
20260902023944 85 153 0.9 2.6 0.00 0.00 0.00 63 1011.3
20260902023443 85 93 0.9 2.6 0.00 0.00 0.00 63 1011.2
20260902022938 85 158 1.7 3.5 0.00 0.00 0.00 63 1011.2
20260902022437 85 113 1.7 3.5 0.00 0.00 0.00 63 1011.1
20260902021938 85 146 1.7 4.3 0.00 0.00 0.00 63 1011.1
20260902021438 85 137 2.6 4.3 0.00 0.00 0.00 63 1011.0
20260902020437 86 119 1.7 3.5 0.00 0.00 0.00 62 1010.9
20260902015937 86 119 1.7 2.6 0.00 0.00 0.00 61 1010.9
20260902015439 86 178 1.7 3.5 0.00 0.00 0.00 61 1010.8
20260902014436 87 168 1.7 3.5 0.00 0.00 0.00 60 1010.5
20260902013936 87 123 1.7 2.6 0.00 0.00 0.00 59 1010.5
20260902013435 87 142 1.7 2.6 0.00 0.00 0.00 58 1010.6
20260902012935 87 123 1.7 2.6 0.00 0.00 0.00 58 1010.5
20260902012436 88 119 1.7 2.6 0.00 0.00 0.00 57 1010.4
20260902011935 88 119 0.9 3.5 0.00 0.00 0.00 56 1010.4
20260902011435 89 126 1.7 3.5 0.00 0.00 0.00 56 1010.3
20260902010935 89 111 1.7 4.3 0.00 0.00 0.00 54 1010.4
20260902010434 90 123 1.7 5.2 0.00 0.00 0.00 53 1010.3
20260902005934 90 126 2.6 5.2 0.00 0.00 0.00 52 1010.3
20260902005435 90 178 2.6 6.1 0.00 0.00 0.00 52 1010.2
20260902004934 91 173 3.5 7.0 0.00 0.00 0.00 52 1010.2
20260902003934 91 183 3.5 7.0 0.00 0.00 0.00 51 1010.2